Find Xi Wang 5-2

NORAD ID: 67069 Int'l Des: 2025-296 Owner: CAST Country: CN operational
LEOCIRCULAR

Live-Position

3D-Globus wird geladen...

Über Xi Wang 5-2

Beschreibung wird geladen...

Nächste Überflüge

Passes for default location (London). Set your location on the main map for personalized predictions.

Höhenverlauf

Loading altitude history...

Zweizeiliger Elementsatz

1 67069U 25296A 26107.00543253 .00004973 00000-0 26807-3 0 9999
2 67069 41.3505 109.7755 0001183 49.0483 311.0440 15.15469794 18950
Epoch: 17. Apr. 2026 • Age: 13 hours

Aktueller Status

Höhe 519.0 km
Geschwindigkeit 7.61 km/s
Subsatellitenpunkt 29.48°N, 105.85°E
Startdatum 13. Dez. 2025
Alter 0.3 years
Typ other

Technische Details

Klassifizierung Payload
Masse 12.00 kg
Trockenmasse 12.00 kg
Gesamtmasse 12.00 kg
Länge 0.30 m
Durchmesser 0.20 m
Spannweite 6.00 m
Form Box + 2 pan
Hersteller DFH
Bus-Typ Cubesat 6U
Phasenstatus In Orbit
Besitzer/Staat CAST/CN

Most Searched